Weather History for Huntsville, AL

Change the Weather History Date:

Thursday, April 26, 2012

  Actual Average Record
Temperature  
Mean Temperature 74 °F 65 °F  
Max Temperature 82 °F 76 °F 90 °F (1925)
Min Temperature 65 °F 53 °F 31 °F (1919)
Degree Days  
Heating Degree Days 0 3  
Month to date heating degree days 95 144  
Since 1 July heating degree days 2339 2964  
Cooling Degree Days 9 3  
Month to date cooling degree days 60 46  
Year to date cooling degree days 142 60  
Growing Degree Days 24 (Base 50)    
Moisture  
Dew Point 59 °F    
Average Humidity 64    
Maximum Humidity 76    
Minimum Humidity 51    
Precipitation  
Precipitation 0.00 in 0.15 in 1.26 in (1967)
Month to date precipitation 2.17 3.72  
Year to date precipitation 17.84 18.66  
Snow  
Snow 0.00 in - - ()
Month to date snowfall 0.0  
Since 1 July snowfall T  
Snow Depth 0.00 in    
Sea Level Pressure  
Sea Level Pressure 29.89 in    
Wind  
Wind Speed 9 mph (WSW)    
Max Wind Speed 21 mph    
Max Gust Speed 28 mph    
Visibility 10 miles    
Events      
T = Trace of Precipitation, MM = Missing Value Source: NWS Daily Summary

Daily Weather History Graph

Daily Weather History Graph

Search for Another Location

Airport:

Trip Planner

Search our weather history database for the weather conditions in past years. The results will help you decide how hot, cold, wet, or windy it might be!

Date:

Astronomy

Apr. 26, 2012 Rise Set
Actual Time 6:01 AM CDT 7:28 PM CDT
Civil Twilight 5:35 AM CDT 7:55 PM CDT
Nautical Twilight 5:03 AM CDT 8:27 PM CDT
Astronomical Twilight 4:30 AM CDT 9:00 PM CDT
Moon 9:46 AM CDT (4/26) No Moon Set
Length of Visible Light 14h 19m
Length of Day
13h 26m
Waxing Crescent, 24% of the Moon is Illuminated
Apr 26
Waxing Crescent
Apr 29
First Quarter
May 5
Full
May 12
Last Quarter
May 20
New

Hourly Weather History & Observations

Time (CDT) Temp. Heat Index Dew Point Humidity Pressure Visibility Wind Dir Wind Speed Gust Speed Precip Events Conditions
12:53 AM 70.0 °F - 55.0 °F 59% 29.86 in 10.0 mi SW 9.2 mph - N/A   Clear
1:53 AM 69.1 °F - 55.9 °F 63% 29.86 in 10.0 mi SW 9.2 mph - N/A   Partly Cloudy
2:53 AM 68.0 °F - 55.9 °F 65% 29.86 in 10.0 mi SSW 9.2 mph - N/A   Scattered Clouds
3:53 AM 68.0 °F - 57.0 °F 68% 29.87 in 10.0 mi SW 12.7 mph - N/A   Mostly Cloudy
4:53 AM 66.9 °F - 57.0 °F 70% 29.87 in 10.0 mi SW 13.8 mph - N/A   Mostly Cloudy
5:53 AM 66.9 °F - 57.0 °F 70% 29.87 in 10.0 mi SW 13.8 mph - N/A   Mostly Cloudy
6:53 AM 66.9 °F - 57.0 °F 70% 29.89 in 10.0 mi WSW 15.0 mph - N/A   Mostly Cloudy
7:53 AM 66.9 °F - 57.0 °F 70% 29.89 in 10.0 mi SW 13.8 mph 20.7 mph N/A   Mostly Cloudy
8:53 AM 69.1 °F - 57.9 °F 68% 29.91 in 10.0 mi WSW 8.1 mph 17.3 mph N/A   Mostly Cloudy
9:53 AM 70.0 °F - 57.9 °F 65% 29.93 in 10.0 mi West 5.8 mph - N/A   Mostly Cloudy
10:53 AM 73.0 °F - 57.9 °F 59% 29.92 in 10.0 mi WSW 13.8 mph - N/A   Mostly Cloudy
11:53 AM 78.1 °F - 60.1 °F 54% 29.90 in 10.0 mi SSW 17.3 mph 27.6 mph N/A   Scattered Clouds
12:53 PM 79.0 °F - 61.0 °F 54% 29.90 in 10.0 mi WSW 9.2 mph - N/A   Scattered Clouds
1:53 PM 81.0 °F 81.7 °F 61.0 °F 50% 29.89 in 10.0 mi WSW 12.7 mph - N/A   Mostly Cloudy
2:53 PM 80.1 °F 81.2 °F 62.1 °F 54% 29.88 in 10.0 mi WSW 11.5 mph 18.4 mph N/A   Overcast
3:53 PM 80.1 °F 81.2 °F 62.1 °F 54% 29.87 in 10.0 mi SW 12.7 mph - N/A   Overcast
4:53 PM 81.0 °F 82.2 °F 63.0 °F 54% 29.86 in 10.0 mi WSW 10.4 mph - N/A   Overcast
5:53 PM 79.0 °F - 60.1 °F 52% 29.88 in 10.0 mi WSW 12.7 mph - N/A   Overcast
6:53 PM 77.0 °F - 61.0 °F 58% 29.89 in 10.0 mi West 5.8 mph - N/A   Overcast
7:53 PM 75.9 °F - 63.0 °F 64% 29.92 in 10.0 mi NW 3.5 mph - N/A   Overcast
8:53 PM 73.9 °F - 63.0 °F 68% 29.93 in 10.0 mi Calm Calm - N/A   Scattered Clouds
9:53 PM 72.0 °F - 61.0 °F 68% 29.94 in 10.0 mi SW 4.6 mph - N/A   Partly Cloudy
10:53 PM 70.0 °F - 59.0 °F 68% 29.94 in 10.0 mi Calm Calm - N/A   Mostly Cloudy
11:53 PM 68.0 °F - 60.1 °F 76% 29.93 in 10.0 mi Calm Calm - N/A   Partly Cloudy